Change the Weather History Date:

Thursday, June 5, 2014

  Actual Average (KPLN) Record (KPLN)
Temperature  
Mean Temperature 54 °F -  
Max Temperature 65 °F 72 °F 89 °F (1988)
Min Temperature 43 °F 45 °F 28 °F (1964)
Degree Days  
Heating Degree Days 11    
Growing Degree Days 4 (Base 50)    
Moisture  
Dew Point 43 °F    
Average Humidity 73    
Maximum Humidity 97    
Minimum Humidity 46    
Precipitation  
Precipitation 0.00 in - - ()
Sea Level Pressure  
Sea Level Pressure 29.95 in    
Wind  
Wind Speed 2 mph (SW)    
Max Wind Speed 9 mph    
Max Gust Speed 17 mph    
Visibility 10 miles    
Events      
Averages and records for this station are not official NWS values.
T = Trace of Precipitation, MM = Missing Value Source: NWS Daily Summary

Daily Weather History Graph

Daily Weather History Graph

Search for Another Location

Airport or City:

Trip Planner

Search our weather history database for the weather conditions in past years. The results will help you decide how hot, cold, wet, or windy it might be!

Date:

Astronomy

Jun. 05, 2014 Rise Set
Actual Time 5:52 AM EDT 9:24 PM EDT
Civil Twilight 5:15 AM EDT 10:01 PM EDT
Nautical Twilight 4:26 AM EDT 10:50 PM EDT
Astronomical Twilight 3:22 AM EDT 11:55 PM EDT
Moon 1:24 PM EDT (6/5) 1:36 AM EDT (6/5)
Length of Visible Light 16h 45m
Length of Day
15h 31m
Waxing Crescent, 48% of the Moon is Illuminated
Jun 5
Waxing Crescent
Jun 5
First Quarter
Jun 13
Full
Jun 19
Last Quarter
Jun 27
New

Hourly Weather History & Observations

Time (EDT) Temp. Dew Point Humidity Pressure Visibility Wind Dir Wind Speed Gust Speed Precip Events Conditions
12:15 AM 47.8 °F 44.1 °F 87% 29.91 in 10.0 mi Calm Calm - N/A   Clear
12:35 AM 49.1 °F 43.3 °F 81% 29.91 in 10.0 mi Calm Calm - N/A   Clear
12:54 AM 50.4 °F 42.8 °F 75% 29.91 in 10.0 mi Calm Calm - N/A   Clear
1:15 AM 47.5 °F 43.9 °F 87% 29.91 in 10.0 mi Calm Calm - N/A   Clear
1:35 AM 48.9 °F 43.3 °F 81% 29.91 in 10.0 mi Calm Calm - N/A   Clear
1:54 AM 47.7 °F 42.8 °F 83% 29.92 in 10.0 mi Calm Calm - N/A   Scattered Clouds
2:15 AM 48.9 °F 43.3 °F 81% 29.92 in 10.0 mi Calm Calm - N/A   Clear
2:34 AM 47.8 °F 43.2 °F 84% 29.92 in 10.0 mi Calm Calm - N/A   Clear
2:55 AM 48.0 °F 43.0 °F 83% 29.92 in 10.0 mi Calm Calm - N/A   Clear
3:15 AM 47.7 °F 42.8 °F 83% 29.93 in 10.0 mi Calm Calm - N/A   Clear
3:34 AM 46.6 °F 43.2 °F 88% 29.93 in 10.0 mi Calm Calm - N/A   Clear
3:55 AM 46.6 °F 43.5 °F 89% 29.92 in 10.0 mi Calm Calm - N/A   Clear
4:15 AM 46.6 °F 42.3 °F 85% 29.92 in 10.0 mi Calm Calm - N/A   Clear
4:34 AM 44.1 °F 42.3 °F 93% 29.93 in 10.0 mi Calm Calm - N/A   Clear
4:55 AM 44.8 °F 43.3 °F 95% 29.94 in 10.0 mi Calm Calm - N/A   Clear
5:15 AM 44.8 °F 42.8 °F 93% 29.94 in 10.0 mi Calm Calm - N/A   Clear
5:34 AM 43.7 °F 42.6 °F 96% 29.94 in 10.0 mi Calm Calm - N/A   Clear
5:55 AM 44.1 °F 43.2 °F 97% 29.95 in 10.0 mi Calm Calm - N/A   Clear
6:15 AM 43.9 °F 43.0 °F 97% 29.95 in 10.0 mi Calm Calm - N/A   Clear
6:34 AM 44.2 °F 42.8 °F 95% 29.95 in 10.0 mi Calm Calm - N/A   Clear
6:55 AM 45.0 °F 42.8 °F 92% 29.96 in 10.0 mi Calm Calm - N/A   Clear
7:15 AM 45.5 °F 42.6 °F 90% 29.96 in 10.0 mi Calm Calm - N/A   Clear
7:34 AM 46.4 °F 42.6 °F 87% 29.97 in 10.0 mi Calm Calm - N/A   Clear
7:55 AM 46.6 °F 42.4 °F 85% 29.98 in 10.0 mi SW 4.6 mph - N/A   Clear
8:15 AM 47.3 °F 42.8 °F 84% 29.98 in 10.0 mi WSW 4.6 mph - N/A   Clear
8:34 AM 48.0 °F 43.2 °F 83% 29.99 in 10.0 mi SW 6.9 mph - N/A   Clear
8:55 AM 47.5 °F 42.1 °F 82% 29.99 in 10.0 mi SW 6.9 mph - N/A   Clear
9:14 AM 48.2 °F 42.6 °F 81% 30.00 in 10.0 mi SW 6.9 mph - N/A   Clear
9:35 AM 48.4 °F 42.6 °F 80% 29.99 in 10.0 mi SW 5.8 mph - N/A   Clear
9:55 AM 48.7 °F 42.4 °F 79% 29.99 in 10.0 mi SW 5.8 mph - N/A   Clear
10:14 AM 49.5 °F 43.3 °F 79% 29.99 in 10.0 mi SW 6.9 mph - N/A   Clear
10:35 AM 49.3 °F 43.2 °F 79% 29.99 in 10.0 mi SSW 5.8 mph - N/A   Clear
10:55 AM 50.7 °F 43.7 °F 77% 29.97 in 10.0 mi SSW 5.8 mph - N/A   Clear
11:14 AM 51.4 °F 44.1 °F 76% 29.95 in 10.0 mi SW 3.5 mph - N/A   Clear
11:35 AM 56.7 °F 43.9 °F 62% 29.93 in 10.0 mi SW 3.5 mph - N/A   Clear
11:55 AM 56.7 °F 43.3 °F 61% 29.94 in 10.0 mi SW 4.6 mph - N/A   Clear
12:14 PM 58.5 °F 43.0 °F 56% 29.95 in 10.0 mi WSW 6.9 mph - N/A   Clear
12:35 PM 58.6 °F 45.0 °F 60% 29.94 in 10.0 mi WSW 4.6 mph - N/A   Clear
12:55 PM 58.5 °F 44.8 °F 60% 29.94 in 10.0 mi SW 6.9 mph - N/A   Clear
1:14 PM 55.6 °F 44.8 °F 67% 29.97 in 10.0 mi SSW 8.1 mph - N/A   Clear
1:35 PM 62.2 °F 44.8 °F 53% 29.96 in 10.0 mi WSW 8.1 mph - N/A   Clear
1:55 PM 65.3 °F 44.6 °F 47% 29.96 in 10.0 mi WSW 8.1 mph - N/A   Clear
2:14 PM 63.9 °F 43.7 °F 48% 29.95 in 10.0 mi WSW 6.9 mph - N/A   Clear
2:35 PM 59.2 °F 43.9 °F 57% 29.93 in 10.0 mi SSW 4.6 mph - N/A   Clear
2:55 PM 57.9 °F 44.2 °F 60% 29.94 in 10.0 mi West 8.1 mph - N/A   Clear
3:14 PM 59.9 °F 44.1 °F 56% 29.94 in 10.0 mi WSW 6.9 mph - N/A   Clear
3:35 PM 59.4 °F 43.7 °F 56% 29.94 in 10.0 mi SW 6.9 mph - N/A   Clear
3:55 PM 57.0 °F 45.1 °F 64% 29.94 in 10.0 mi SW 8.1 mph - N/A   Clear
4:14 PM 59.7 °F 45.9 °F 60% 29.94 in 10.0 mi WSW 8.1 mph - N/A   Clear
4:35 PM 64.6 °F 44.4 °F 48% 29.94 in 10.0 mi West 9.2 mph 17.3 mph N/A   Clear
4:54 PM 62.4 °F 43.2 °F 49% 29.94 in 10.0 mi WSW 8.1 mph - N/A   Clear
5:14 PM 62.2 °F 42.1 °F 48% 29.94 in 10.0 mi WSW 9.2 mph - N/A   Clear
5:35 PM 62.4 °F 41.2 °F 46% 29.94 in 10.0 mi WSW 8.1 mph - N/A   Clear
5:54 PM 58.5 °F 43.0 °F 56% 29.94 in 10.0 mi South 4.6 mph - N/A   Clear
6:15 PM 56.7 °F 42.8 °F 60% 29.94 in 10.0 mi SSW 4.6 mph - N/A   Clear
6:35 PM 57.6 °F 41.9 °F 56% 29.94 in 10.0 mi SW 3.5 mph - N/A   Clear
6:54 PM 56.3 °F 42.3 °F 59% 29.94 in 10.0 mi WSW 5.8 mph - N/A   Clear
7:15 PM 56.5 °F 42.1 °F 59% 29.93 in 10.0 mi SSW 3.5 mph - N/A   Clear
7:35 PM 55.8 °F 41.7 °F 59% 29.92 in 10.0 mi SW 3.5 mph - N/A   Clear
7:54 PM 54.7 °F 41.2 °F 60% 29.93 in 10.0 mi Calm Calm - N/A   Clear
8:15 PM 55.0 °F 41.4 °F 60% 29.92 in 10.0 mi Calm Calm - N/A   Clear
8:35 PM 53.6 °F 41.7 °F 64% 29.94 in 10.0 mi Calm Calm - N/A   Clear
8:54 PM 53.4 °F 41.5 °F 64% 29.94 in 7.0 mi Calm Calm - N/A   Clear
9:15 PM 52.7 °F 41.0 °F 64% 29.94 in 10.0 mi Calm Calm - N/A   Clear
9:34 PM 52.2 °F 42.1 °F 69% 29.94 in 10.0 mi Calm Calm - N/A   Clear
9:55 PM 51.6 °F 43.7 °F 74% 29.94 in 10.0 mi Calm Calm - N/A   Clear
10:14 PM 50.9 °F 42.8 °F 74% 29.94 in 10.0 mi Calm Calm - N/A   Clear
10:35 PM 50.9 °F 43.5 °F 76% 29.95 in 10.0 mi Calm Calm - N/A   Clear
10:55 PM 50.5 °F 44.1 °F 78% 29.96 in 10.0 mi Calm Calm - N/A   Clear
11:14 PM 50.5 °F 43.7 °F 77% 29.96 in 10.0 mi Calm Calm - N/A   Clear
11:35 PM 50.0 °F 43.7 °F 79% 29.96 in 10.0 mi Calm Calm - N/A   Clear
11:55 PM 48.7 °F 43.0 °F 80% 29.96 in 10.0 mi Calm Calm - N/A   Clear